TIGRISAT

Last updated on Sun Sep 20 2026 00:03:42 GMT+0000 (Coordinated Universal Time)

1 40043U 14033AK 26262.36322822 .00001451 00000+0 17091-3 0 9999 2 40043 97.7966 50.3110 0050084 124.7244 235.8703 14.85446619659600
UTC large
Height (km)
Speed (km/s)
/
Latitude / Longitude
Inclination (degrees)
Orbital Period (minutes)
Azimuth
Elevation
Range (km)
Doppler Factor

Next 0 passes for location: London (51.5072 / 0.1276)

No passes found over London.
TIGRISAT